Time,TemperatureF,DewpointF,PressureIn,WindDirection,WindDirectionDegrees,WindSpeedMPH,WindSpeedGustMPH,Humidity,HourlyPrecipIn,Conditions,Clouds,dailyrainin,SoftwareType,DateUTC
2013-08-24 00:00:00,64.0,-99.9,30.07,NW,310,1.0,-999.0,-999,-99.99,,,-99.99,,2013-08-24 05:00:00,
2013-08-24 00:43:00,64.0,-99.9,30.07,NW,310,1.0,-999.0,-999,-99.99,,,-99.99,,2013-08-24 05:43:00,
2013-08-24 00:53:00,64.0,-99.9,30.07,NW,310,1.0,-999.0,-999,-99.99,,,-99.99,,2013-08-24 05:53:00,
2013-08-24 01:00:00,63.0,-99.9,30.08,ESE,120,0.0,-999.0,-999,-99.99,,,-99.99,,2013-08-24 06:00:00,
2013-08-24 01:42:00,63.0,-99.9,30.08,ESE,120,0.0,-999.0,-999,-99.99,,,-99.99,,2013-08-24 06:42:00,
2013-08-24 01:52:00,63.0,-99.9,30.08,ESE,120,0.0,-999.0,-999,-99.99,,,-99.99,,2013-08-24 06:52:00,
2013-08-24 02:00:00,63.0,-99.9,30.08,North,0,0.0,-999.0,-999,-99.99,,,-99.99,,2013-08-24 07:00:00,
2013-08-24 02:43:00,63.0,-99.9,30.08,North,0,0.0,-999.0,-999,-99.99,,,-99.99,,2013-08-24 07:43:00,
2013-08-24 02:53:00,63.0,-99.9,30.08,North,0,0.0,-999.0,-999,-99.99,,,-99.99,,2013-08-24 07:53:00,
2013-08-24 03:00:00,63.0,-99.9,30.09,ESE,120,0.0,-999.0,-999,-99.99,,,-99.99,,2013-08-24 08:00:00,
2013-08-24 03:42:00,63.0,-99.9,30.09,ESE,120,0.0,-999.0,-999,-99.99,,,-99.99,,2013-08-24 08:42:00,
2013-08-24 03:52:00,63.0,-99.9,30.09,ESE,120,0.0,-999.0,-999,-99.99,,,-99.99,,2013-08-24 08:52:00,
2013-08-24 04:00:00,63.0,-99.9,30.10,ESE,120,0.0,-999.0,-999,-99.99,,,-99.99,,2013-08-24 09:00:00,
2013-08-24 04:44:00,63.0,-99.9,30.10,ESE,120,0.0,-999.0,-999,-99.99,,,-99.99,,2013-08-24 09:44:00,
2013-08-24 04:53:00,63.0,-99.9,30.10,ESE,120,0.0,-999.0,-999,-99.99,,,-99.99,,2013-08-24 09:53:00,
2013-08-24 05:00:00,63.0,-99.9,30.10,NW,320,2.0,-999.0,-999,-99.99,,,-99.99,,2013-08-24 10:00:00,
2013-08-24 05:42:00,63.0,-99.9,30.10,NW,320,2.0,-999.0,-999,-99.99,,,-99.99,,2013-08-24 10:42:00,
2013-08-24 05:53:00,63.0,-99.9,30.10,NW,320,2.0,-999.0,-999,-99.99,,,-99.99,,2013-08-24 10:53:00,
2013-08-24 06:00:00,59.0,-99.9,30.08,NE,40,15.0,-999.0,-999,-99.99,,,-99.99,,2013-08-24 11:00:00,
2013-08-24 06:42:00,59.0,-99.9,30.08,NE,40,15.0,-999.0,-999,-99.99,,,-99.99,,2013-08-24 11:42:00,
2013-08-24 06:52:00,59.0,-99.9,30.08,NE,40,15.0,-999.0,-999,-99.99,,,-99.99,,2013-08-24 11:52:00,
2013-08-24 07:00:00,62.0,-99.9,30.09,NE,40,15.0,-999.0,-999,-99.99,,,-99.99,,2013-08-24 12:00:00,
2013-08-24 07:42:00,62.0,-99.9,30.09,NE,40,15.0,-999.0,-999,-99.99,,,-99.99,,2013-08-24 12:42:00,
2013-08-24 07:52:00,62.0,-99.9,30.09,NE,40,15.0,-999.0,-999,-99.99,,,-99.99,,2013-08-24 12:52:00,
2013-08-24 08:00:00,68.0,-99.9,30.09,SSE,160,16.0,-999.0,-999,-99.99,,,-99.99,,2013-08-24 13:00:00,
2013-08-24 08:42:00,68.0,-99.9,30.09,SSE,160,16.0,-999.0,-999,-99.99,,,-99.99,,2013-08-24 13:42:00,
2013-08-24 08:52:00,68.0,-99.9,30.09,SSE,160,16.0,-999.0,-999,-99.99,,,-99.99,,2013-08-24 13:52:00,
2013-08-24 09:00:00,69.0,-99.9,30.09,South,180,16.0,-999.0,-999,-99.99,,,-99.99,,2013-08-24 14:00:00,
2013-08-24 09:42:00,69.0,-99.9,30.09,South,180,16.0,-999.0,-999,-99.99,,,-99.99,,2013-08-24 14:42:00,
2013-08-24 09:52:00,69.0,-99.9,30.09,South,180,16.0,-999.0,-999,-99.99,,,-99.99,,2013-08-24 14:52:00,
2013-08-24 10:00:00,67.0,-99.9,30.09,South,170,11.0,-999.0,-999,-99.99,,,-99.99,,2013-08-24 15:00:00,
2013-08-24 10:45:00,67.0,-99.9,30.09,South,170,11.0,-999.0,-999,-99.99,,,-99.99,,2013-08-24 15:45:00,
2013-08-24 10:54:00,67.0,-99.9,30.09,South,170,11.0,-999.0,-999,-99.99,,,-99.99,,2013-08-24 15:54:00,
2013-08-24 15:00:00,70.0,-99.9,30.06,South,180,17.0,-999.0,-999,-99.99,,,-99.99,,2013-08-24 20:00:00,
2013-08-24 15:42:00,70.0,-99.9,30.06,South,180,17.0,-999.0,-999,-99.99,,,-99.99,,2013-08-24 20:42:00,
2013-08-24 15:53:00,70.0,-99.9,30.06,South,180,17.0,-999.0,-999,-99.99,,,-99.99,,2013-08-24 20:53:00,
2013-08-24 16:00:00,73.0,-99.9,30.04,South,170,20.0,-999.0,-999,-99.99,,,-99.99,,2013-08-24 21:00:00,
2013-08-24 16:43:00,73.0,-99.9,30.04,South,170,20.0,-999.0,-999,-99.99,,,-99.99,,2013-08-24 21:43:00,
2013-08-24 16:55:00,73.0,-99.9,30.04,South,170,20.0,-999.0,-999,-99.99,,,-99.99,,2013-08-24 21:55:00,
2013-08-24 17:00:00,73.0,-99.9,30.04,South,170,16.0,-999.0,-999,-99.99,,,-99.99,,2013-08-24 22:00:00,
2013-08-24 17:43:00,73.0,-99.9,30.04,South,170,16.0,-999.0,-999,-99.99,,,-99.99,,2013-08-24 22:43:00,
2013-08-24 17:53:00,73.0,-99.9,30.04,South,170,16.0,-999.0,-999,-99.99,,,-99.99,,2013-08-24 22:53:00,
2013-08-24 18:00:00,73.0,-99.9,30.02,SE,140,16.0,-999.0,-999,-99.99,,,-99.99,,2013-08-24 23:00:00,
2013-08-24 18:43:00,73.0,-99.9,30.02,SE,140,16.0,-999.0,-999,-99.99,,,-99.99,,2013-08-24 23:43:00,
2013-08-24 18:53:00,73.0,-99.9,30.02,SE,140,16.0,-999.0,-999,-99.99,,,-99.99,,2013-08-24 23:53:00,